Stations météo

réclame
Mon MeteoGroup
Ornskoldsvik Airport, Suède (2267): Température de l'air & dewpoint: 12.02.2019 01:00:00 - 18.02.2019 01:00:00 (CET)Ornskoldsvik Airport, Suède (2267): Vitesse du vent: 12.02.2019 01:00:00 - 18.02.2019 01:00:00 (CET)Ornskoldsvik Airport, Suède (2267): Direction du vent: 12.02.2019 01:00:00 - 18.02.2019 01:00:00 (CET)Ornskoldsvik Airport, Suède (2267): reduced air pressure: 12.02.2019 01:00:00 - 18.02.2019 01:00:00 (CET)Ornskoldsvik Airport, Suède (2267): visibility: 12.02.2019 01:00:00 - 18.02.2019 01:00:00 (CET)
Date & Time tt [°C] td [°C] ff [km/h] ff [knt] dd ppp [hPa] vv [km]
18.02.2019 01:00:00 -1,0 -3,2 9 5 SSE 1015,9 6
18.02.2019 00:00:00 -1,2 -3,7 13 7 SSE 1016,7 10
17.02.2019 23:00:00 -1,4 -4,1 9 5 ESE 1017,7 10
17.02.2019 22:00:00 -1,6 -5,1 9 5 SSE 1018,6 10
17.02.2019 21:00:00 -1,6 -6,7 9 5 S 1019,2 10
17.02.2019 20:00:00 -1,7 -7,6 11 6 SSE 1018,9 10
17.02.2019 19:00:00 -2,5 -8,6 5 3 S 1019,2 10
17.02.2019 18:00:00 -4,0 -9,8 4 2 S 1019,5 10
17.02.2019 17:00:00 -2,7 -9,8 5 3 SE 1019,3 10
17.02.2019 16:00:00 -0,4 -9,3 4 2 S 1019,0 10
17.02.2019 15:00:00 1,9 -9,1 4 2 - 1018,6 10
17.02.2019 14:00:00 2,3 -8,7 8 4 NNE 1018,2 10
17.02.2019 13:00:00 2,4 -8,3 13 7 NNW 1017,9 10
17.02.2019 12:00:00 1,9 -6,9 13 7 NNW 1017,5 10
17.02.2019 11:00:00 1,3 -6,7 16 9 NW 1016,8 10
17.02.2019 10:00:00 0,2 -6,0 18 10 NW 1016,2 10
17.02.2019 09:00:00 -0,8 -6,2 18 10 NW 1014,9 10
17.02.2019 08:00:00 -1,6 -6,4 16 9 NW 1014,3 10
17.02.2019 07:00:00 -1,3 -6,3 22 12 NW 1013,3 10
17.02.2019 06:00:00 -1,3 -6,3 18 10 W 1012,3 10
17.02.2019 05:00:00 -0,7 -5,9 28 15 WNW 1011,0 10
17.02.2019 04:00:00 0,2 -5,6 29 16 W 1009,8 10
17.02.2019 03:00:00 0,1 -5,5 26 14 W 1008,8 10
17.02.2019 02:00:00 0,2 -5,8 24 13 W 1007,7 10
17.02.2019 01:00:00 0,1 -6,1 26 14 W 1006,2 10
17.02.2019 00:00:00 0,7 -6,4 34 18 W 1005,0 10
16.02.2019 23:00:00 0,8 -6,5 31 17 W 1003,8 10
16.02.2019 22:00:00 0,6 -6,7 28 15 W 1003,0 10
16.02.2019 21:00:00 1,2 -6,8 29 16 W 1002,0 10
16.02.2019 20:00:00 1,7 -6,9 34 18 W 1001,8 10
16.02.2019 19:00:00 2,4 -7,0 41 22 W 1000,7 10
16.02.2019 18:00:00 2,7 -7,2 37 20 W 1001,0 10
16.02.2019 17:00:00 2,9 -7,0 35 19 W 1000,8 10
16.02.2019 16:00:00 3,9 -5,8 24 13 W 1000,5 10
16.02.2019 15:00:00 4,6 -4,4 31 17 W 1000,0 10
16.02.2019 14:00:00 4,8 -3,5 31 17 W 999,6 10
16.02.2019 13:00:00 4,9 -2,7 28 15 W 999,2 10
16.02.2019 12:00:00 4,9 -2,9 34 18 W 998,9 10
16.02.2019 11:00:00 4,4 -2,0 28 15 WNW 999,0 10
16.02.2019 10:00:00 5,4 -1,7 24 13 W 998,9 10
16.02.2019 09:00:00 5,8 -1,6 24 13 W 998,3 10
16.02.2019 08:00:00 1,8 -3,5 5 3 - 998,7 10
16.02.2019 07:00:00 -1,6 -3,8 9 5 WSW 999,2 10
16.02.2019 06:00:00 -2,8 -2,9 9 5 SW 999,2 10
16.02.2019 05:00:00 -4,5 -4,6 4 2 - 999,6 10
16.02.2019 04:00:00 -4,3 -4,4 4 2 WNW 1000,9 0,8
16.02.2019 03:00:00 -4,1 -4,2 4 2 W 1002,0 2,2
16.02.2019 02:00:00 -3,1 -3,4 4 2 - 1003,5 1,4
16.02.2019 01:00:00 -3,0 -3,5 0 0 N 1004,6 3,6
16.02.2019 00:00:00 -2,2 -2,8 8 4 WNW 1005,9 10
15.02.2019 23:00:00 -0,3 -1,1 2 1 - 1007,0 10
15.02.2019 22:00:00 0,7 -0,8 5 3 NW 1008,3 10
15.02.2019 21:00:00 1,4 -0,8 5 3 W 1009,6 10
15.02.2019 20:00:00 2,1 -0,2 8 4 SSW 1010,9 10
15.02.2019 19:00:00 0,8 -1,8 4 2 WNW 1011,6 10
15.02.2019 18:00:00 0,4 -2,5 5 3 S 1012,1 10
15.02.2019 17:00:00 1,6 -1,8 8 4 SW 1012,1 10
15.02.2019 16:00:00 3,5 -1,1 5 3 SW 1012,3 10
15.02.2019 15:00:00 3,9 -0,1 8 4 SSW 1012,7 10
15.02.2019 14:00:00 4,0 -0,4 8 4 SSW 1012,9 10
15.02.2019 13:00:00 4,5 -0,7 13 7 SW 1012,9 10
15.02.2019 12:00:00 4,2 -1,0 8 4 SSW 1013,4 10
15.02.2019 11:00:00 3,8 -1,2 16 9 SW 1013,2 10
15.02.2019 10:00:00 3,9 -1,5 13 7 SW 1012,8 10
15.02.2019 09:00:00 3,8 -1,8 21 11 WSW 1011,9 10
15.02.2019 08:00:00 4,0 -2,4 24 13 WSW 1011,0 10
15.02.2019 07:00:00 4,1 -2,7 24 13 WSW 1010,0 10
15.02.2019 06:00:00 4,6 -3,0 28 15 W 1009,3 10
15.02.2019 05:00:00 4,6 -2,7 35 19 WSW 1008,9 10
15.02.2019 04:00:00 4,4 -2,7 28 15 WSW 1008,9 10
15.02.2019 03:00:00 4,6 -2,5 29 16 W 1008,9 10
15.02.2019 02:00:00 5,1 -3,0 31 17 W 1008,7 10
15.02.2019 01:00:00 4,8 -3,2 34 18 W 1008,5 10
15.02.2019 00:00:00 5,0 -3,3 31 17 WSW 1008,5 10
14.02.2019 23:00:00 5,1 -2,7 26 14 W 1008,3 10
14.02.2019 22:00:00 5,5 -2,8 28 15 W 1008,1 10
14.02.2019 21:00:00 5,9 -2,2 29 16 W 1007,6 10
14.02.2019 20:00:00 6,3 -0,7 39 21 W 1006,8 10
14.02.2019 19:00:00 7,0 0,0 31 17 W 1006,1 10
14.02.2019 18:00:00 6,6 0,1 21 11 WSW 1005,7 10
14.02.2019 17:00:00 7,2 0,4 24 13 WSW 1005,8 10
14.02.2019 16:00:00 7,7 -0,3 24 13 WSW 1005,3 10
14.02.2019 15:00:00 6,4 -0,1 18 10 WSW 1006,3 10
14.02.2019 14:00:00 2,0 -1,1 11 6 NW 1006,9 10
14.02.2019 13:00:00 2,3 -2,0 11 6 SW 1006,2 10
14.02.2019 12:00:00 2,1 -2,0 13 7 SSE 1007,1 10
14.02.2019 11:00:00 2,2 -2,1 5 3 - 1008,0 10
14.02.2019 10:00:00 1,7 -1,6 7 4 SSW 1009,5 21
14.02.2019 09:00:00 1,5 -0,4 9 5 S 1011,0 10
14.02.2019 08:00:00 2,1 0,0 5 3 S 1012,2 10
14.02.2019 07:00:00 1,9 0,1 8 4 SSW 1012,5 10
14.02.2019 06:00:00 1,9 0,1 5 3 - 1012,9 10
14.02.2019 05:00:00 1,7 -0,9 15 8 W 1014,7 10
14.02.2019 04:00:00 1,1 -2,1 11 6 WSW 1014,7 10
14.02.2019 03:00:00 0,5 -2,4 9 5 WSW 1015,5 10
14.02.2019 02:00:00 1,1 -2,0 15 8 - 1015,2 10
14.02.2019 01:00:00 0,2 -2,8 11 6 WSW 1015,0 10
14.02.2019 00:00:00 -1,0 -4,3 11 6 W 1014,6 10
13.02.2019 23:00:00 -0,3 -3,8 8 4 WSW 1013,2 10
13.02.2019 22:00:00 1,2 -3,7 15 8 NW 1011,8 10
13.02.2019 21:00:00 3,0 -2,9 26 14 NW 1010,0 10
13.02.2019 20:00:00 3,7 -2,9 31 17 NW 1008,2 10
13.02.2019 19:00:00 3,8 -2,2 34 18 NW 1006,3 10
13.02.2019 18:00:00 3,6 -1,0 46 25 WNW 1004,1 10
13.02.2019 17:00:00 3,3 -0,5 46 25 WNW 1002,4 10
13.02.2019 16:00:00 3,7 -0,3 44 24 W 1000,7 10
13.02.2019 15:00:00 4,4 -0,2 28 15 W 1000,6 10
13.02.2019 14:00:00 3,6 -0,1 31 17 W 1000,8 10
13.02.2019 13:00:00 3,4 -0,5 31 17 W 1000,5 10
13.02.2019 12:00:00 2,9 -1,1 26 14 W 1000,3 10
13.02.2019 11:00:00 1,9 -1,7 26 14 W 1000,5 10
13.02.2019 10:00:00 -1,1 -3,8 13 7 WNW 1000,5 10
13.02.2019 09:00:00 -3,9 -5,0 11 6 WSW 1000,1 10
13.02.2019 08:00:00 -4,3 -5,0 9 5 SW 999,7 10
13.02.2019 07:00:00 -3,9 -4,4 8 4 SW 999,0 10
13.02.2019 06:00:00 -4,8 -5,5 5 3 SW 999,7 8
13.02.2019 05:00:00 -5,6 -6,4 5 3 ESE 1000,1 10
13.02.2019 04:00:00 -6,6 -7,7 0 0 N 1000,8 10
13.02.2019 03:00:00 -6,8 -7,9 4 2 NNW 1001,5 10
13.02.2019 02:00:00 -7,6 -9,0 0 0 N 1002,6 10
13.02.2019 01:00:00 -8,0 -9,3 4 2 NNE 1004,1 10
13.02.2019 00:00:00 -6,6 -7,4 5 3 S 1005,5 10
12.02.2019 23:00:00 -10,0 -11,5 4 2 - 1006,0 10
12.02.2019 22:00:00 -7,3 -8,7 8 4 - 1007,0 10
12.02.2019 21:00:00 -7,3 -8,1 9 5 W 1007,9 10
12.02.2019 20:00:00 -7,1 -7,8 9 5 ESE 1008,8 10
12.02.2019 19:00:00 -5,7 -7,5 15 8 WSW 1009,2 10
12.02.2019 18:00:00 -5,5 -7,9 15 8 WSW 1009,5 10
12.02.2019 17:00:00 -5,1 -7,5 9 5 SW 1009,7 10
12.02.2019 16:00:00 -3,5 -7,3 18 10 W 1009,7 10
12.02.2019 15:00:00 -2,7 -7,0 21 11 W 1009,5 10
12.02.2019 14:00:00 -2,7 -7,4 18 10 W 1009,4 10
12.02.2019 13:00:00 -2,9 -7,6 24 13 WNW 1009,1 10
12.02.2019 12:00:00 -3,4 -8,1 22 12 WNW 1008,8 10
12.02.2019 11:00:00 -3,3 -8,2 21 11 WNW 1008,5 10
12.02.2019 10:00:00 -3,1 -7,8 22 12 WNW 1008,3 10
12.02.2019 09:00:00 -4,2 -7,6 18 10 WNW 1007,9 10
12.02.2019 08:00:00 -5,5 -8,6 18 10 WNW 1007,1 10
12.02.2019 07:00:00 -5,3 -7,9 18 10 NE 1006,3 10
12.02.2019 06:00:00 -5,0 -8,1 16 9 NE 1006,0 10
12.02.2019 05:00:00 -4,9 -8,0 18 10 WNW 1005,6 10
12.02.2019 04:00:00 -6,0 -8,9 18 10 NW 1005,4 10
12.02.2019 03:00:00 -5,8 -8,5 16 9 NW 1005,2 10
12.02.2019 02:00:00 -5,3 -8,7 21 11 WNW 1004,9 10
12.02.2019 01:00:00 -5,5 -8,9 18 10 WNW 1004,7 10

tt = Température de l'air
td = dewpoint
ff = Vitesse du vent
dd = Direction du vent
ppp = reduced air pressure
vv = visibility

stations d'obs. à proximité